Regional Weather Roundup
Issued by NWS

Home | Current Version | Previous Version | Text Only | Print | Product List | Glossary On
Versions: 1 2 3 4 5 6 7 8 9 10 11 12 13 14 15 16 17 18 19 20 21 22 23 24 25 26 27 28 29 30 31 32 33 34 35 36 37 38 39 40 41 42 43 44 45 46 47 48 49 50
000
ASUS44 KBMX 301010
RWRAL

ALABAMA REGIONAL WEATHER ROUNDUP
NATIONAL WEATHER SERVICE BIRMINGHAM AL
500 AM CDT THU JUL 30 2015

NOTE: "FAIR" INDICATES FEW OR NO CLOUDS BELOW 12,000 FEET
WITH NO SIGNIFICANT WEATHER AND/OR OBSTRUCTIONS TO VISIBILITY.

THE REMARK "TC" DENOTES TEMPERATURE IN DEGREES CELSIUS.

ALZ001>011-014-016>018-020-301100-
NORTH ALABAMA

CITY           SKY/WX    TMP DP  RH WIND       PRES   REMARKS
MUSCLE SHOALS  CLEAR     76  73  91 NW6       30.01S
HUNTSVILLE     CLEAR     76  72  87 CALM      30.00R FOG
DECATUR        CLEAR     74  74 100 NW3       30.01R FOG
HALEYVILLE     FAIR      72  72 100 CALM      30.04S FOG
GADSDEN        CLEAR     77  72  83 CALM      29.97S
$$

ALZ012-013-022-023-030>036-040>044-301100-
WEST CENTRAL ALABAMA

CITY           SKY/WX    TMP DP  RH WIND       PRES   REMARKS
TUSCALOOSA     CLEAR     74  73  97 CALM      29.98S
$$

ALZ015-024>027-033>036-040>044-301100-
CENTRAL ALABAMA

CITY           SKY/WX    TMP DP  RH WIND       PRES   REMARKS
BIRMINGHAM     CLEAR     76  74  93 CALM      30.01S
MONTGOMERY     PTCLDY    77  74  90 NW6       29.94S
SHELBY CO ARPT CLEAR     78  75  90 N5        29.98R
MAXWELL AFB    CLEAR     77  76  97 W1        29.94S
GREENVILLE     NOT AVBL
$$

ALZ019-021-028-029-037-038-045>048-301100-
EAST CENTRAL ALABAMA

CITY           SKY/WX    TMP DP  RH WIND       PRES   REMARKS
ANNISTON       CLEAR     76  73  91 CALM      29.98S
ALEXANDER CITY CLEAR     74  71  90 CALM      29.97S FOG
AUBURN           N/A    N/A N/A N/A MISG        N/A
$$

ALZ051>064-301100-
SOUTHWEST ALABAMA

CITY           SKY/WX    TMP DP  RH WIND       PRES   REMARKS
MOBILE         PTCLDY    76  75  97 NW3       29.96F
BROOKLEY FIELD PTCLDY    78  74  87 NW6       29.96F
EVERGREEN      PTCLDY    75  73  93 CALM      29.95F
$$

ALZ049-050-065>069-301100-
SOUTHEAST ALABAMA

CITY           SKY/WX    TMP DP  RH WIND       PRES   REMARKS
DOTHAN         PTCLDY    76  75  97 W6        29.96S
OZARK          MOCLDY    76  76  99 SW2       29.92F
TROY           PTCLDY    77  75  93 W3        29.94F
EUFAULA        FAIR      76  75  97 CALM      29.92S
$$


USA.gov is the U.S. government's official web portal to all federal, state and local government web resources and services.